CW7400 Weather Reports


Display with metric or nautical units.
time (UTC)temp
F
wind
direction
speed
MPH
gust
MPH
rain 1hr
in
rain 24hr
in
rain mn
in
humidity
%
barometer
mb
20260505064504 61 0 0.0 8.0 0.00 0.00 0.00 70 1015.4
20260505063604 61 0 0.0 8.0 0.00 0.00 0.00 70 1015.4
20260505062704 61 0 0.0 2.0 0.00 0.00 0.00 70 1015.3
20260505061803 61 0 0.0 8.0 0.00 0.00 0.00 70 1015.3
20260505060903 62 0 0.0 6.0 0.00 0.00 0.00 69 1015.4
20260505060004 62 0 0.0 10.0 0.00 0.00 0.00 69 1015.4
20260505055404 62 0 0.0 10.0 0.00 0.00 0.00 69 1015.3
20260505054504 62 258 3.0 18.0 0.00 0.00 0.00 68 1015.4
20260505053604 62 0 0.0 14.0 0.00 0.00 0.00 68 1015.4
20260505052704 62 0 0.0 16.0 0.00 0.00 0.00 69 1015.5
20260505051803 62 0 0.0 6.0 0.00 0.00 0.00 69 1015.5
20260505050925 62 0 0.0 6.0 0.00 0.00 0.00 68 1015.5
20260505040903 64 305 3.0 8.0 0.00 0.00 0.00 66 1015.4
20260505040005 64 0 0.0 10.0 0.00 0.00 0.00 66 1015.5
20260505035403 64 0 0.0 6.0 0.00 0.00 0.00 66 1015.5
20260505034503 64 0 0.0 2.0 0.00 0.00 0.00 65 1015.5
20260505033625 65 0 0.0 6.0 0.00 0.00 0.00 65 1015.5
20260505032703 65 0 0.0 2.0 0.00 0.00 0.00 64 1015.5
20260505031803 66 0 0.0 10.0 0.00 0.00 0.00 63 1015.5
20260505030903 66 0 0.0 4.0 0.00 0.00 0.00 63 1015.4
20260505030004 66 0 0.0 12.0 0.00 0.00 0.00 61 1015.5
20260505025424 67 0 0.0 12.0 0.00 0.00 0.00 61 1015.4
20260505024503 67 269 3.0 14.0 0.00 0.00 0.00 60 1015.4
20260505023624 67 0 0.0 14.0 0.00 0.00 0.00 58 1015.4
20260505022703 68 0 0.0 10.0 0.00 0.00 0.00 56 1015.3
20260505021803 68 145 3.0 14.0 0.00 0.00 0.00 53 1015.2
20260505020903 68 255 3.0 12.0 0.00 0.00 0.00 50 1015.1
20260505020004 68 0 0.0 8.0 0.00 0.00 0.00 50 1015.1
20260505015424 68 0 0.0 2.0 0.00 0.00 0.00 50 1015.1
20260505014503 69 0 0.0 4.0 0.00 0.00 0.00 48 1014.8
20260505013603 70 0 0.0 10.0 0.00 0.00 0.00 46 1014.7
20260505012703 70 0 0.0 2.0 0.00 0.00 0.00 46 1014.6
20260505011803 70 0 0.0 10.0 0.00 0.00 0.00 46 1014.5
20260505010903 70 0 0.0 6.0 0.00 0.00 0.00 46 1014.4
20260505010025 70 0 0.0 2.0 0.00 0.00 0.00 45 1014.3
20260505005424 70 0 0.0 2.0 0.00 0.00 0.00 45 1014.2
20260505004503 71 0 0.0 8.0 0.00 0.00 0.00 45 1014.0
20260505003603 71 0 0.0 8.0 0.00 0.00 0.00 44 1013.9
20260505002703 72 0 0.0 2.0 0.00 0.00 0.00 43 1013.8
20260505001824 73 0 0.0 8.0 0.00 0.00 0.00 42 1013.8
20260505000903 73 0 0.0 8.0 0.00 0.00 0.00 40 1013.8
20260505000004 74 0 0.0 4.0 0.00 0.00 0.00 40 1013.7
20260504235403 74 0 0.0 4.0 0.00 0.00 0.00 39 1013.7
20260504234503 75 0 0.0 4.0 0.00 0.00 0.00 38 1013.6
20260504233603 75 0 0.0 4.0 0.00 0.00 0.00 38 1013.4
20260504232703 76 0 0.0 2.0 0.00 0.00 0.00 36 1013.3
20260504231803 76 0 0.0 2.0 0.00 0.00 0.00 34 1013.3
20260504230903 77 0 0.0 2.0 0.00 0.00 0.00 35 1013.3
20260504230004 77 0 0.0 4.0 0.00 0.00 0.00 34 1013.3
20260504225403 78 0 0.0 4.0 0.00 0.00 0.00 33 1013.3
20260504224503 78 0 0.0 4.0 0.00 0.00 0.00 32 1013.3
20260504223624 78 0 0.0 8.0 0.00 0.00 0.00 32 1013.4
20260504222703 79 0 0.0 10.0 0.00 0.00 0.00 32 1013.4
20260504221803 79 0 0.0 6.0 0.00 0.00 0.00 31 1013.4
20260504220903 80 230 3.0 8.0 0.00 0.00 0.00 32 1013.4
20260504220004 80 0 0.0 8.0 0.00 0.00 0.00 32 1013.4
20260504215403 80 254 3.0 8.0 0.00 0.00 0.00 32 1013.3
20260504214503 81 252 3.0 6.0 0.00 0.00 0.00 32 1013.4
20260504213603 82 254 3.0 6.0 0.00 0.00 0.00 31 1013.4
20260504212724 83 0 0.0 6.0 0.00 0.00 0.00 30 1013.5
20260504211803 83 0 0.0 8.0 0.00 0.00 0.00 30 1013.5
20260504210903 83 0 0.0 6.0 0.00 0.00 0.00 32 1013.4
20260504210004 83 0 0.0 4.0 0.00 0.00 0.00 31 1013.5
20260504205403 83 0 0.0 4.0 0.00 0.00 0.00 31 1013.5
20260504204524 83 238 3.0 10.0 0.00 0.00 0.00 30 1013.6
20260504203624 84 0 0.0 10.0 0.00 0.00 0.00 30 1013.7
20260504202724 83 0 0.0 6.0 0.00 0.00 0.00 33 1013.8
20260504201803 83 75 3.0 6.0 0.00 0.00 0.00 32 1013.9
20260504200903 82 233 3.0 8.0 0.00 0.00 0.00 33 1014.0
20260504200025 82 226 3.0 6.0 0.00 0.00 0.00 31 1014.0
20260504195403 82 244 3.0 6.0 0.00 0.00 0.00 32 1014.1
20260504194503 82 0 0.0 8.0 0.00 0.00 0.00 33 1014.2
20260504193603 82 253 3.0 6.0 0.00 0.00 0.00 31 1014.2
20260504192703 82 0 0.0 6.0 0.00 0.00 0.00 34 1014.5
20260504191803 81 239 3.0 10.0 0.00 0.00 0.00 35 1014.4
20260504190903 82 138 3.0 10.0 0.00 0.00 0.00 31 1014.5
20260504190004 81 0 0.0 4.0 0.00 0.00 0.00 34 1014.7
20260504185403 81 233 3.0 12.0 0.00 0.00 0.00 31 1014.8
20260504184503 81 257 3.0 8.0 0.00 0.00 0.00 34 1015.0
20260504183603 81 98 3.0 8.0 0.00 0.00 0.00 34 1015.1
20260504182703 81 78 3.0 6.0 0.00 0.00 0.00 35 1015.2
20260504181803 80 167 3.0 8.0 0.00 0.00 0.00 35 1015.2
20260504180903 80 249 3.0 14.0 0.00 0.00 0.00 36 1015.2
20260504180004 79 244 3.0 14.0 0.00 0.00 0.00 38 1015.3
20260504175424 79 254 3.0 8.0 0.00 0.00 0.00 38 1015.3
20260504174503 79 244 3.0 8.0 0.00 0.00 0.00 39 1015.5
20260504173603 79 230 3.0 8.0 0.00 0.00 0.00 37 1015.5
20260504172703 78 238 3.0 8.0 0.00 0.00 0.00 42 1015.6
20260504171803 78 150 3.0 10.0 0.00 0.00 0.00 39 1015.9
20260504170903 78 76 3.0 8.0 0.00 0.00 0.00 41 1016.1
20260504150903 72 0 0.0 4.0 0.00 0.00 0.00 51 1017.1
20260504140904 67 0 0.0 6.0 0.00 0.00 0.00 60 1017.4
20260504081804 48 0 0.0 0.0 0.00 0.00 0.00 82 1017.3
20260504080904 47 0 0.0 2.0 0.00 0.00 0.00 83 1017.3